,,,PA_Meas_PMT16A,,PR_Meas_QMR101_102,,RH_Meas_QMH101,,SR_Meas_QMS101,,TA_Meas_QMH101,,GenWind,,GenWind,
date,time,status,PA,status,PR,status,RH,status,SR,status,TA,status,DirAvg,status,SpdAvg,
2014-06-12, 00:00:04,VALID,1008.04,VALID,0,INVALID,109.422,VALID,0.112112,VALID,25.1148,VALID,107,VALID,0,
2014-06-12, 00:01:04,VALID,1007.99,VALID,0,INVALID,109.468,VALID,0.112112,VALID,25.1167,VALID,107,VALID,0,
2014-06-12, 00:02:04,VALID,1007.97,VALID,0,INVALID,109.491,VALID,0.112112,VALID,25.0954,VALID,107,VALID,0,
2014-06-12, 00:03:04,VALID,1007.94,VALID,0,INVALID,109.513,VALID,0.112112,VALID,25.1167,VALID,107,VALID,0,
2014-06-12, 00:04:04,VALID,1007.95,VALID,0,INVALID,109.506,VALID,0.112112,VALID,25.1167,VALID,107,VALID,0,
2014-06-12, 00:05:04,VALID,1007.91,VALID,0,INVALID,109.521,VALID,0.112112,VALID,25.0954,VALID,107,VALID,0,
2014-06-12, 00:06:04,VALID,1007.89,VALID,0,INVALID,109.559,VALID,0.112112,VALID,25.0759,VALID,107,VALID,0,
2014-06-12, 00:07:04,VALID,1007.89,VALID,0,INVALID,109.597,VALID,0.112112,VALID,25.0778,VALID,107,VALID,0,
2014-06-12, 00:08:04,VALID,1007.87,VALID,0,INVALID,109.62,VALID,0.112112,VALID,25.0759,VALID,107,VALID,0,
2014-06-12, 00:09:04,VALID,1007.85,VALID,0,INVALID,109.643,VALID,0.112112,VALID,25.0759,VALID,107,VALID,0,
2014-06-12, 00:10:04,VALID,1007.82,VALID,0,INVALID,109.704,VALID,0,VALID,25.0778,VALID,107,VALID,0,
2014-06-12, 00:11:04,VALID,1007.81,VALID,0,INVALID,109.757,VALID,0,VALID,25.0778,VALID,107,VALID,0,
2014-06-12, 00:12:04,VALID,1007.81,VALID,0,INVALID,109.78,VALID,0,VALID,25.1187,VALID,107,VALID,0,
2014-06-12, 00:13:04,VALID,1007.79,VALID,0,INVALID,109.719,VALID,0,VALID,25.0778,VALID,107,VALID,0,
2014-06-12, 00:14:04,VALID,1007.77,VALID,0,INVALID,109.712,VALID,0,VALID,25.0778,VALID,107,VALID,0,
2014-06-12, 00:15:04,VALID,1007.73,VALID,0,INVALID,109.735,VALID,0,VALID,25.0778,VALID,107,VALID,0,
2014-06-12, 00:16:04,VALID,1007.72,VALID,0,INVALID,109.757,VALID,0,VALID,25.0778,VALID,107,VALID,0,
2014-06-12, 00:17:04,VALID,1007.73,VALID,0,INVALID,109.735,VALID,0,VALID,25.0583,VALID,107,VALID,0,
2014-06-12, 00:18:04,VALID,1007.72,VALID,0,INVALID,109.719,VALID,0,VALID,25.0583,VALID,107,VALID,0,
2014-06-12, 00:19:04,VALID,1007.69,VALID,0,INVALID,109.735,VALID,0,VALID,25.0602,VALID,107,VALID,0,
2014-06-12, 00:20:04,VALID,1007.72,VALID,0,INVALID,109.78,VALID,0,VALID,25.0388,VALID,107,VALID,0,
2014-06-12, 00:21:04,VALID,1007.7,VALID,0,INVALID,109.849,VALID,0,VALID,25.0193,VALID,107,VALID,0,
2014-06-12, 00:22:04,VALID,1007.71,VALID,0,INVALID,109.887,VALID,0,VALID,24.9998,VALID,107,VALID,0,
2014-06-12, 00:23:04,VALID,1007.67,VALID,0,INVALID,109.841,VALID,0,VALID,24.9803,VALID,107,VALID,0,
2014-06-12, 00:24:04,VALID,1007.69,VALID,0,INVALID,109.818,VALID,0,VALID,24.9627,VALID,107,VALID,0,
2014-06-12, 00:25:04,VALID,1007.68,VALID,0,INVALID,109.902,VALID,0,VALID,24.9432,VALID,107,VALID,0,
2014-06-12, 00:26:04,VALID,1007.65,VALID,0,INVALID,109.887,VALID,0,VALID,24.8828,VALID,107,VALID,0,
2014-06-12, 00:27:04,VALID,1007.63,VALID,0,INVALID,110.032,VALID,0,VALID,24.8847,VALID,107,VALID,0,
2014-06-12, 00:28:04,VALID,1007.62,VALID,0,INVALID,110.055,VALID,0,VALID,24.8633,VALID,107,VALID,0,
2014-06-12, 00:29:04,VALID,1007.6,VALID,0,INVALID,110.139,VALID,0,VALID,24.8438,VALID,107,VALID,0,
2014-06-12, 00:30:04,VALID,1007.57,VALID,0,INVALID,110.223,VALID,0,VALID,24.8244,VALID,107,VALID,0,
2014-06-12, 00:31:04,VALID,1007.55,VALID,0,INVALID,110.284,VALID,0,VALID,24.8049,VALID,107,VALID,0,
2014-06-12, 00:32:04,VALID,1007.55,VALID,0,INVALID,110.299,VALID,0,VALID,24.8262,VALID,107,VALID,0,
2014-06-12, 00:33:04,VALID,1007.53,VALID,0,INVALID,110.322,VALID,0,VALID,24.8049,VALID,107,VALID,0,
2014-06-12, 00:34:04,VALID,1007.5,VALID,0,INVALID,110.368,VALID,0,VALID,24.7854,VALID,107,VALID,0,
2014-06-12, 00:35:04,VALID,1007.47,VALID,0,INVALID,110.398,VALID,0,VALID,24.7854,VALID,107,VALID,0,
2014-06-12, 00:36:04,VALID,1007.46,VALID,0,INVALID,110.429,VALID,0,VALID,24.8067,VALID,107,VALID,0,
2014-06-12, 00:37:04,VALID,1007.47,VALID,0,INVALID,110.421,VALID,0,VALID,24.8067,VALID,107,VALID,0,
2014-06-12, 00:38:04,VALID,1007.45,VALID,0,INVALID,110.421,VALID,0,VALID,24.7854,VALID,107,VALID,0,
2014-06-12, 00:39:04,VALID,1007.45,VALID,0,INVALID,110.421,VALID,0,VALID,24.7854,VALID,107,VALID,0,
2014-06-12, 00:40:04,VALID,1007.44,VALID,0,INVALID,110.444,VALID,0,VALID,24.8067,VALID,107,VALID,0,
2014-06-12, 00:41:04,VALID,1007.45,VALID,0,INVALID,110.436,VALID,0,VALID,24.8067,VALID,107,VALID,0,
2014-06-12, 00:42:04,VALID,1007.44,VALID,0,INVALID,110.429,VALID,0,VALID,24.7854,VALID,107,VALID,0,
2014-06-12, 00:43:04,VALID,1007.4,VALID,0,INVALID,110.451,VALID,0,VALID,24.8067,VALID,107,VALID,0,
2014-06-12, 00:44:04,VALID,1007.38,VALID,0,INVALID,110.436,VALID,0,VALID,24.8262,VALID,107,VALID,0,
2014-06-12, 00:45:04,VALID,1007.36,VALID,0,INVALID,110.421,VALID,0,VALID,24.8049,VALID,107,VALID,0,
2014-06-12, 00:46:04,VALID,1007.34,VALID,0,INVALID,110.36,VALID,0,VALID,24.8262,VALID,107,VALID,0,
2014-06-12, 00:47:04,VALID,1007.34,VALID,0,INVALID,110.375,VALID,0,VALID,24.8457,VALID,107,VALID,0,
2014-06-12, 00:48:04,VALID,1007.31,VALID,0,INVALID,110.383,VALID,0,VALID,24.8244,VALID,108,VALID,0,
2014-06-12, 00:49:04,VALID,1007.26,VALID,0,INVALID,110.345,VALID,0,VALID,24.8652,VALID,107,VALID,0,
2014-06-12, 00:50:04,VALID,1007.27,VALID,0,INVALID,110.36,VALID,0,VALID,24.8828,VALID,107,VALID,0,
2014-06-12, 00:51:04,VALID,1007.25,VALID,0,INVALID,110.307,VALID,0,VALID,24.9042,VALID,107,VALID,0,
2014-06-12, 00:52:04,VALID,1007.21,VALID,0,INVALID,110.291,VALID,0,VALID,24.8847,VALID,107,VALID,0,
2014-06-12, 00:53:04,VALID,1007.22,VALID,0,INVALID,110.215,VALID,0,VALID,24.8828,VALID,107,VALID,0,
2014-06-12, 00:54:04,VALID,1007.22,VALID,0,INVALID,110.185,VALID,0,VALID,24.9023,VALID,131,VALID,0,
2014-06-12, 00:55:04,VALID,1007.21,VALID,0,INVALID,110.078,VALID,0,VALID,24.8828,VALID,131,VALID,0,
2014-06-12, 00:56:04,VALID,1007.22,VALID,0,INVALID,110.047,VALID,0,VALID,24.8828,VALID,131,VALID,0,
2014-06-12, 00:57:04,VALID,1007.19,VALID,0,INVALID,110.032,VALID,0,VALID,24.8828,VALID,131,VALID,0,
2014-06-12, 00:58:04,VALID,1007.18,VALID,0,INVALID,110.085,VALID,0,VALID,24.8828,VALID,131,VALID,0,
2014-06-12, 00:59:04,VALID,1007.15,VALID,0,INVALID,110.101,VALID,0,VALID,24.8652,VALID,131,VALID,0,
2014-06-12, 01:00:04,VALID,1007.14,VALID,0,INVALID,110.093,VALID,0,VALID,24.8652,VALID,131,VALID,0,
2014-06-12, 01:01:04,VALID,1007.13,VALID,0,INVALID,110.101,VALID,0,VALID,24.8652,VALID,131,VALID,0,
2014-06-12, 01:02:04,VALID,1007.12,VALID,0,INVALID,110.162,VALID,0,VALID,24.8652,VALID,131,VALID,0,
2014-06-12, 01:03:04,VALID,1007.14,VALID,0,INVALID,110.162,VALID,0,VALID,24.8457,VALID,131,VALID,0,
2014-06-12, 01:04:04,VALID,1007.12,VALID,0,INVALID,110.169,VALID,0,VALID,24.8438,VALID,131,VALID,0,
2014-06-12, 01:05:04,VALID,1007.1,VALID,0,INVALID,110.215,VALID,0,VALID,24.8652,VALID,131,VALID,0,
2014-06-12, 01:06:04,VALID,1007.09,VALID,0,INVALID,110.215,VALID,0,VALID,24.8438,VALID,131,VALID,0,
2014-06-12, 01:07:04,VALID,1007.07,VALID,0,INVALID,110.246,VALID,0,VALID,24.8244,VALID,131,VALID,0,
2014-06-12, 01:08:04,VALID,1007.03,VALID,0,INVALID,110.291,VALID,0,VALID,24.8244,VALID,131,VALID,0,
2014-06-12, 01:09:04,VALID,1007.03,VALID,0,INVALID,110.307,VALID,0,VALID,24.8244,VALID,131,VALID,0,
2014-06-12, 01:10:04,VALID,1006.99,VALID,0,INVALID,110.329,VALID,0,VALID,24.8244,VALID,131,VALID,0,
2014-06-12, 01:11:04,VALID,1006.97,VALID,0,INVALID,110.284,VALID,0,VALID,24.8457,VALID,131,VALID,0,
2014-06-12, 01:12:04,VALID,1006.96,VALID,0,INVALID,110.314,VALID,0,VALID,24.8244,VALID,131,VALID,0,
2014-06-12, 01:13:04,VALID,1006.95,VALID,0,INVALID,110.322,VALID,0,VALID,24.8262,VALID,131,VALID,0,
2014-06-12, 01:14:04,VALID,1006.94,VALID,0,INVALID,110.329,VALID,0,VALID,24.8262,VALID,131,VALID,0,
2014-06-12, 01:15:04,VALID,1006.92,VALID,0,INVALID,110.337,VALID,0,VALID,24.8244,VALID,131,VALID,0,
2014-06-12, 01:16:04,VALID,1006.91,VALID,0,INVALID,110.345,VALID,0,VALID,24.8457,VALID,131,VALID,0,
2014-06-12, 01:17:04,VALID,1006.9,VALID,0,INVALID,110.383,VALID,0,VALID,24.8244,VALID,131,VALID,0,
2014-06-12, 01:18:04,VALID,1006.87,VALID,0,INVALID,110.375,VALID,0,VALID,24.8457,VALID,131,VALID,0,
2014-06-12, 01:19:04,VALID,1006.85,VALID,0,INVALID,110.39,VALID,0,VALID,24.8457,VALID,131,VALID,0,
2014-06-12, 01:20:04,VALID,1006.81,VALID,0,INVALID,110.39,VALID,0,VALID,24.8457,VALID,131,VALID,0,
2014-06-12, 01:21:04,VALID,1006.78,VALID,0,INVALID,110.398,VALID,0,VALID,24.8633,VALID,131,VALID,0,
2014-06-12, 01:22:04,VALID,1006.79,VALID,0,INVALID,110.39,VALID,0,VALID,24.8438,VALID,131,VALID,0,
2014-06-12, 01:23:04,VALID,1006.74,VALID,0,INVALID,110.36,VALID,0,VALID,24.8847,VALID,131,VALID,0,
2014-06-12, 01:24:04,VALID,1006.68,VALID,0,INVALID,110.36,VALID,0,VALID,24.8652,VALID,131,VALID,0,
2014-06-12, 01:25:04,VALID,1006.68,VALID,0,INVALID,110.39,VALID,0,VALID,24.8633,VALID,131,VALID,0,
2014-06-12, 01:26:04,VALID,1006.68,VALID,0,INVALID,110.352,VALID,0,VALID,24.8633,VALID,131,VALID,0,
2014-06-12, 01:27:04,VALID,1006.68,VALID,0,INVALID,110.375,VALID,0,VALID,24.8633,VALID,131,VALID,0,
2014-06-12, 01:28:04,VALID,1006.7,VALID,0,INVALID,110.375,VALID,0,VALID,24.8633,VALID,131,VALID,0,
2014-06-12, 01:29:04,VALID,1006.7,VALID,0,INVALID,110.375,VALID,0,VALID,24.8633,VALID,131,VALID,0,
2014-06-12, 01:30:04,VALID,1006.71,VALID,0,INVALID,110.39,VALID,0,VALID,24.8633,VALID,131,VALID,0,
2014-06-12, 01:31:04,VALID,1006.71,VALID,0,INVALID,110.39,VALID,0,VALID,24.8633,VALID,131,VALID,0,
2014-06-12, 01:32:04,VALID,1006.71,VALID,0,INVALID,110.39,VALID,0,VALID,24.8633,VALID,131,VALID,0,
2014-06-12, 01:33:04,VALID,1006.72,VALID,0,INVALID,110.352,VALID,0,VALID,24.8438,VALID,131,VALID,0,
2014-06-12, 01:34:04,VALID,1006.68,VALID,0,INVALID,110.383,VALID,0,VALID,24.8438,VALID,131,VALID,0,
2014-06-12, 01:35:04,VALID,1006.66,VALID,0,INVALID,110.383,VALID,0,VALID,24.8438,VALID,131,VALID,0,
2014-06-12, 01:36:04,VALID,1006.69,VALID,0,INVALID,110.39,VALID,0,VALID,24.8438,VALID,131,VALID,0,
2014-06-12, 01:37:04,VALID,1006.64,VALID,0,INVALID,110.406,VALID,0,VALID,24.8438,VALID,131,VALID,0,
2014-06-12, 01:38:04,VALID,1006.65,VALID,0,INVALID,110.436,VALID,0,VALID,24.8652,VALID,131,VALID,0,
2014-06-12, 01:39:04,VALID,1006.64,VALID,0,INVALID,110.459,VALID,0,VALID,24.8847,VALID,131,VALID,0,
2014-06-12, 01:40:04,VALID,1006.63,VALID,0,INVALID,110.451,VALID,0,VALID,24.8633,VALID,131,VALID,0,
2014-06-12, 01:41:04,VALID,1006.57,VALID,0,INVALID,110.474,VALID,0,VALID,24.8828,VALID,131,VALID,0,
2014-06-12, 01:42:04,VALID,1006.58,VALID,0,INVALID,110.459,VALID,0,VALID,24.9237,VALID,131,VALID,0,
2014-06-12, 01:43:04,VALID,1006.55,VALID,0,INVALID,110.444,VALID,0,VALID,24.9237,VALID,131,VALID,0,
2014-06-12, 01:44:04,VALID,1006.55,VALID,0,INVALID,110.459,VALID,0,VALID,24.9023,VALID,131,VALID,0,
2014-06-12, 01:45:04,VALID,1006.52,VALID,0,INVALID,110.39,VALID,0,VALID,24.9023,VALID,131,VALID,0,
2014-06-12, 01:46:04,VALID,1006.51,VALID,0,INVALID,110.36,VALID,0,VALID,24.9023,VALID,131,VALID,0,
2014-06-12, 01:47:04,VALID,1006.5,VALID,0,INVALID,110.36,VALID,0,VALID,24.8828,VALID,131,VALID,0,
2014-06-12, 01:48:04,VALID,1006.48,VALID,0,INVALID,110.337,VALID,0,VALID,24.9023,VALID,131,VALID,0,
2014-06-12, 01:49:04,VALID,1006.47,VALID,0,INVALID,110.314,VALID,0,VALID,24.9023,VALID,87,VALID,0,
2014-06-12, 01:50:04,VALID,1006.45,VALID,0,INVALID,110.268,VALID,0,VALID,24.9237,VALID,87,VALID,0,
2014-06-12, 01:51:04,VALID,1006.45,VALID,0,INVALID,110.215,VALID,0,VALID,24.9023,VALID,87,VALID,0,
2014-06-12, 01:52:04,VALID,1006.43,VALID,0,INVALID,110.169,VALID,0,VALID,24.8828,VALID,87,VALID,0,
2014-06-12, 01:53:04,VALID,1006.45,VALID,0,INVALID,110.192,VALID,0,VALID,24.8633,VALID,87,VALID,0,
2014-06-12, 01:54:04,VALID,1006.45,VALID,0,INVALID,110.185,VALID,0,VALID,24.8633,VALID,87,VALID,0,
2014-06-12, 01:55:04,VALID,1006.46,VALID,0,INVALID,110.169,VALID,0.112112,VALID,24.8633,VALID,87,VALID,0,
2014-06-12, 01:56:04,VALID,1006.45,VALID,0,INVALID,110.154,VALID,0.112112,VALID,24.803,VALID,87,VALID,0,
2014-06-12, 01:57:04,VALID,1006.44,VALID,0,INVALID,110.169,VALID,0.112112,VALID,24.803,VALID,87,VALID,0,
2014-06-12, 01:58:04,VALID,1006.42,VALID,0,INVALID,110.2,VALID,0.112112,VALID,24.7835,VALID,87,VALID,0,
2014-06-12, 01:59:04,VALID,1006.43,VALID,0,INVALID,110.238,VALID,0.112112,VALID,24.7445,VALID,87,VALID,0,
2014-06-12, 02:00:04,VALID,1006.39,VALID,0,INVALID,110.238,VALID,0.112112,VALID,24.725,VALID,87,VALID,0,
2014-06-12, 02:01:04,VALID,1006.4,VALID,0,INVALID,110.307,VALID,0.112112,VALID,24.7055,VALID,87,VALID,0,
2014-06-12, 02:02:04,VALID,1006.38,VALID,0,INVALID,110.36,VALID,0.112112,VALID,24.686,VALID,87,VALID,0,
2014-06-12, 02:03:04,VALID,1006.38,VALID,0,INVALID,110.39,VALID,0.112112,VALID,24.6666,VALID,87,VALID,0,
2014-06-12, 02:04:04,VALID,1006.38,VALID,0,INVALID,110.429,VALID,0.112112,VALID,24.6879,VALID,87,VALID,0,
2014-06-12, 02:05:04,VALID,1006.35,VALID,0,INVALID,110.467,VALID,0.112112,VALID,24.6471,VALID,87,VALID,0,
2014-06-12, 02:06:04,VALID,1006.34,VALID,0,INVALID,110.49,VALID,0.112112,VALID,24.6276,VALID,87,VALID,0,
2014-06-12, 02:07:04,VALID,1006.37,VALID,0,INVALID,110.535,VALID,0.112112,VALID,24.6081,VALID,87,VALID,0,
2014-06-12, 02:08:04,VALID,1006.37,VALID,0,INVALID,110.543,VALID,0.112112,VALID,24.6294,VALID,87,VALID,0,
2014-06-12, 02:09:04,VALID,1006.35,VALID,0,INVALID,110.589,VALID,0.112112,VALID,24.6081,VALID,87,VALID,0,
2014-06-12, 02:10:04,VALID,1006.32,VALID,0,INVALID,110.612,VALID,0.112112,VALID,24.5905,VALID,87,VALID,0,
2014-06-12, 02:11:04,VALID,1006.26,VALID,0,INVALID,110.589,VALID,0.112112,VALID,24.5691,VALID,87,VALID,0,
2014-06-12, 02:12:04,VALID,1006.28,VALID,0,INVALID,110.642,VALID,0.112112,VALID,24.5301,VALID,87,VALID,0,
2014-06-12, 02:13:04,VALID,1006.23,VALID,0,INVALID,110.596,VALID,0.112112,VALID,24.5301,VALID,87,VALID,0,
2014-06-12, 02:14:04,VALID,1006.23,VALID,0,INVALID,110.634,VALID,0.112112,VALID,24.5106,VALID,87,VALID,0,
2014-06-12, 02:15:04,VALID,1006.25,VALID,0,INVALID,110.642,VALID,0,VALID,24.4911,VALID,87,VALID,0,
2014-06-12, 02:16:04,VALID,1006.24,VALID,0,INVALID,110.627,VALID,0.112112,VALID,24.4911,VALID,87,VALID,0,
2014-06-12, 02:17:04,VALID,1006.22,VALID,0,INVALID,110.68,VALID,0.112112,VALID,24.5125,VALID,87,VALID,0,
2014-06-12, 02:18:04,VALID,1006.18,VALID,0,INVALID,110.673,VALID,0.112112,VALID,24.4911,VALID,87,VALID,0,
2014-06-12, 02:19:04,VALID,1006.16,VALID,0,INVALID,110.703,VALID,0.112112,VALID,24.5125,VALID,87,VALID,0,
2014-06-12, 02:20:04,VALID,1006.18,VALID,0,INVALID,110.711,VALID,0.112112,VALID,24.493,VALID,87,VALID,0,
2014-06-12, 02:21:04,VALID,1006.2,VALID,0,INVALID,110.741,VALID,0.112112,VALID,24.4717,VALID,87,VALID,0,
2014-06-12, 02:22:04,VALID,1006.17,VALID,0,INVALID,110.718,VALID,0.112112,VALID,24.4522,VALID,87,VALID,0,
2014-06-12, 02:23:04,VALID,1006.17,VALID,0,INVALID,110.741,VALID,0.112112,VALID,24.4522,VALID,87,VALID,0,
2014-06-12, 02:24:04,VALID,1006.19,VALID,0,INVALID,110.703,VALID,0.112112,VALID,24.4522,VALID,87,VALID,0,
2014-06-12, 02:25:04,VALID,1006.17,VALID,0,INVALID,110.749,VALID,0,VALID,24.454,VALID,87,VALID,0,
2014-06-12, 02:26:04,VALID,1006.14,VALID,0,INVALID,110.772,VALID,0,VALID,24.454,VALID,87,VALID,0,
2014-06-12, 02:27:04,VALID,1006.12,VALID,0,INVALID,110.764,VALID,0,VALID,24.4559,VALID,87,VALID,0,
2014-06-12, 02:28:04,VALID,1006.1,VALID,0,INVALID,110.795,VALID,0,VALID,24.415,VALID,87,VALID,0,
2014-06-12, 02:29:04,VALID,1006.11,VALID,0,INVALID,110.779,VALID,0,VALID,24.3956,VALID,87,VALID,0,
2014-06-12, 02:30:04,VALID,1006.12,VALID,0,INVALID,110.795,VALID,0,VALID,24.3956,VALID,87,VALID,0,
2014-06-12, 02:31:04,VALID,1006.14,VALID,0,INVALID,110.772,VALID,0,VALID,24.3761,VALID,87,VALID,0,
2014-06-12, 02:32:04,VALID,1006.13,VALID,0,INVALID,110.749,VALID,0,VALID,24.4169,VALID,87,VALID,0,
2014-06-12, 02:33:04,VALID,1006.15,VALID,0,INVALID,110.779,VALID,0,VALID,24.3761,VALID,87,VALID,0,
2014-06-12, 02:34:04,VALID,1006.12,VALID,0,INVALID,110.81,VALID,0,VALID,24.3761,VALID,87,VALID,0,
2014-06-12, 02:35:04,VALID,1006.12,VALID,0,INVALID,110.81,VALID,0,VALID,24.3761,VALID,87,VALID,0,
2014-06-12, 02:36:04,VALID,1006.12,VALID,0,INVALID,110.787,VALID,0,VALID,24.3761,VALID,87,VALID,0,
2014-06-12, 02:37:04,VALID,1006.11,VALID,0,INVALID,110.795,VALID,0,VALID,24.4169,VALID,87,VALID,0,
2014-06-12, 02:38:04,VALID,1006.11,VALID,0,INVALID,110.787,VALID,0,VALID,24.3956,VALID,87,VALID,0,
2014-06-12, 02:39:04,VALID,1006.1,VALID,0,INVALID,110.817,VALID,0,VALID,24.415,VALID,87,VALID,0,
2014-06-12, 02:40:04,VALID,1006.09,VALID,0,INVALID,110.802,VALID,0,VALID,24.4364,VALID,87,VALID,0,
2014-06-12, 02:41:04,VALID,1006.09,VALID,0,INVALID,110.825,VALID,0,VALID,24.4364,VALID,87,VALID,0,
2014-06-12, 02:42:04,VALID,1006.12,VALID,0,INVALID,110.825,VALID,0,VALID,24.4345,VALID,87,VALID,0,
2014-06-12, 02:43:04,VALID,1006.12,VALID,0,INVALID,110.848,VALID,0,VALID,24.4559,VALID,87,VALID,0,
2014-06-12, 02:44:04,VALID,1006.12,VALID,0,INVALID,110.848,VALID,0,VALID,24.4345,VALID,87,VALID,0,
2014-06-12, 02:45:04,VALID,1006.12,VALID,0,INVALID,110.848,VALID,0,VALID,24.4345,VALID,87,VALID,0,
2014-06-12, 02:46:04,VALID,1006.17,VALID,0,INVALID,110.833,VALID,0,VALID,24.4345,VALID,87,VALID,0,
2014-06-12, 02:47:04,VALID,1006.16,VALID,0,INVALID,110.833,VALID,0,VALID,24.4364,VALID,87,VALID,0,
2014-06-12, 02:48:04,VALID,1006.18,VALID,0,INVALID,110.863,VALID,0,VALID,24.4345,VALID,87,VALID,0,
2014-06-12, 02:49:04,VALID,1006.16,VALID,0,INVALID,110.848,VALID,0,VALID,24.4345,VALID,87,VALID,0,
2014-06-12, 02:50:04,VALID,1006.13,VALID,0,INVALID,110.84,VALID,0,VALID,24.4559,VALID,87,VALID,0,
2014-06-12, 02:51:04,VALID,1006.11,VALID,0,INVALID,110.84,VALID,0,VALID,24.415,VALID,87,VALID,0,
2014-06-12, 02:52:04,VALID,1006.11,VALID,0,INVALID,110.848,VALID,0,VALID,24.4364,VALID,87,VALID,0,
2014-06-12, 02:53:04,VALID,1006.11,VALID,0,INVALID,110.84,VALID,0,VALID,24.4169,VALID,87,VALID,0,
2014-06-12, 02:54:04,VALID,1006.08,VALID,0,INVALID,110.871,VALID,0,VALID,24.3974,VALID,87,VALID,0,
2014-06-12, 02:55:04,VALID,1006.1,VALID,0,INVALID,110.833,VALID,0,VALID,24.3761,VALID,87,VALID,0,
2014-06-12, 02:56:04,VALID,1006.13,VALID,0,INVALID,110.825,VALID,0.112112,VALID,24.3566,VALID,87,VALID,0,
2014-06-12, 02:57:04,VALID,1006.13,VALID,0,INVALID,110.84,VALID,0,VALID,24.3371,VALID,87,VALID,0,
2014-06-12, 02:58:04,VALID,1006.13,VALID,0,INVALID,110.833,VALID,0,VALID,24.3371,VALID,87,VALID,0,
2014-06-12, 02:59:04,VALID,1006.15,VALID,0,INVALID,110.833,VALID,0,VALID,24.3371,VALID,87,VALID,0,
2014-06-12, 03:00:04,VALID,1006.15,VALID,0,INVALID,110.848,VALID,0.112112,VALID,24.2963,VALID,87,VALID,0,
2014-06-12, 03:01:04,VALID,1006.14,VALID,0,INVALID,110.863,VALID,0,VALID,24.2768,VALID,87,VALID,0,
2014-06-12, 03:02:04,VALID,1006.16,VALID,0,INVALID,110.878,VALID,0.112112,VALID,24.2573,VALID,87,VALID,0,
2014-06-12, 03:03:04,VALID,1006.15,VALID,0,INVALID,110.856,VALID,0,VALID,24.2786,VALID,87,VALID,0,
2014-06-12, 03:04:04,VALID,1006.18,VALID,0,INVALID,110.84,VALID,0,VALID,24.2591,VALID,87,VALID,0,
2014-06-12, 03:05:04,VALID,1006.14,VALID,0,INVALID,110.871,VALID,0,VALID,24.2786,VALID,87,VALID,0,
2014-06-12, 03:06:04,VALID,1006.16,VALID,0,INVALID,110.856,VALID,0,VALID,24.2768,VALID,87,VALID,0,
2014-06-12, 03:07:04,VALID,1006.16,VALID,0,INVALID,110.863,VALID,0,VALID,24.2981,VALID,87,VALID,0,
2014-06-12, 03:08:04,VALID,1006.19,VALID,0,INVALID,110.871,VALID,0.112112,VALID,24.3176,VALID,87,VALID,0,
2014-06-12, 03:09:04,VALID,1006.2,VALID,0,INVALID,110.863,VALID,0,VALID,24.3176,VALID,87,VALID,0,
2014-06-12, 03:10:04,VALID,1006.19,VALID,0,INVALID,110.863,VALID,0,VALID,24.2981,VALID,87,VALID,0,
2014-06-12, 03:11:04,VALID,1006.2,VALID,0,INVALID,110.863,VALID,0,VALID,24.2768,VALID,87,VALID,0,
2014-06-12, 03:12:04,VALID,1006.22,VALID,0,INVALID,110.84,VALID,0,VALID,24.2768,VALID,87,VALID,0,
2014-06-12, 03:13:04,VALID,1006.23,VALID,0,INVALID,110.878,VALID,0.112112,VALID,24.2981,VALID,87,VALID,0,
2014-06-12, 03:14:04,VALID,1006.24,VALID,0,INVALID,110.871,VALID,0.112112,VALID,24.3176,VALID,87,VALID,0,
2014-06-12, 03:15:04,VALID,1006.25,VALID,0,INVALID,110.833,VALID,0,VALID,24.2963,VALID,87,VALID,0,
2014-06-12, 03:16:04,VALID,1006.25,VALID,0,INVALID,110.894,VALID,0,VALID,24.2378,VALID,87,VALID,0,
2014-06-12, 03:17:04,VALID,1006.24,VALID,0,INVALID,110.924,VALID,0,VALID,24.2183,VALID,87,VALID,0,
2014-06-12, 03:18:04,VALID,1006.21,VALID,0,INVALID,110.863,VALID,0.112112,VALID,24.2396,VALID,87,VALID,0,
2014-06-12, 03:19:04,VALID,1006.21,VALID,0,INVALID,110.917,VALID,0.112112,VALID,24.2007,VALID,87,VALID,0,
2014-06-12, 03:20:04,VALID,1006.17,VALID,0,INVALID,110.909,VALID,0,VALID,24.1599,VALID,87,VALID,0,
2014-06-12, 03:21:04,VALID,1006.18,VALID,0,INVALID,110.909,VALID,0,VALID,24.1812,VALID,87,VALID,0,
2014-06-12, 03:22:04,VALID,1006.19,VALID,0,INVALID,110.917,VALID,0.112112,VALID,24.1599,VALID,87,VALID,0,
2014-06-12, 03:23:04,VALID,1006.17,VALID,0,INVALID,110.894,VALID,0.112112,VALID,24.1812,VALID,87,VALID,0,
2014-06-12, 03:24:04,VALID,1006.17,VALID,0,INVALID,110.901,VALID,0,VALID,24.1793,VALID,87,VALID,0,
2014-06-12, 03:25:04,VALID,1006.14,VALID,0,INVALID,110.878,VALID,0.112112,VALID,24.1599,VALID,87,VALID,0,
2014-06-12, 03:26:04,VALID,1006.17,VALID,0,INVALID,110.848,VALID,0.112112,VALID,24.1812,VALID,87,VALID,0,
2014-06-12, 03:27:04,VALID,1006.17,VALID,0,INVALID,110.878,VALID,0,VALID,24.1404,VALID,87,VALID,0,
2014-06-12, 03:28:04,VALID,1006.16,VALID,0,INVALID,110.863,VALID,0.112112,VALID,24.1404,VALID,87,VALID,0,
2014-06-12, 03:29:04,VALID,1006.17,VALID,0,INVALID,110.871,VALID,0.112112,VALID,24.1617,VALID,87,VALID,0,
2014-06-12, 03:30:04,VALID,1006.16,VALID,0,INVALID,110.84,VALID,0,VALID,24.1209,VALID,87,VALID,0,
2014-06-12, 03:31:04,VALID,1006.14,VALID,0,INVALID,110.863,VALID,0.112112,VALID,24.1422,VALID,87,VALID,0,
2014-06-12, 03:32:04,VALID,1006.13,VALID,0,INVALID,110.871,VALID,0.112112,VALID,24.1227,VALID,87,VALID,0,
2014-06-12, 03:33:04,VALID,1006.09,VALID,0,INVALID,110.863,VALID,0,VALID,24.1032,VALID,87,VALID,0,
2014-06-12, 03:34:04,VALID,1006.08,VALID,0,INVALID,110.848,VALID,0,VALID,24.1014,VALID,87,VALID,0,
2014-06-12, 03:35:04,VALID,1006.11,VALID,0,INVALID,110.825,VALID,0,VALID,24.1227,VALID,87,VALID,0,
2014-06-12, 03:36:04,VALID,1006.13,VALID,0,INVALID,110.848,VALID,0.112112,VALID,24.1422,VALID,87,VALID,0,
2014-06-12, 03:37:04,VALID,1006.12,VALID,0,INVALID,110.848,VALID,0.112112,VALID,24.0819,VALID,87,VALID,0,
2014-06-12, 03:38:04,VALID,1006.12,VALID,0,INVALID,110.871,VALID,0,VALID,24.0624,VALID,87,VALID,0,
2014-06-12, 03:39:04,VALID,1006.12,VALID,0,INVALID,110.833,VALID,0,VALID,24.0837,VALID,87,VALID,0,
2014-06-12, 03:40:04,VALID,1006.13,VALID,0,INVALID,110.802,VALID,0.112112,VALID,24.1032,VALID,87,VALID,0,
2014-06-12, 03:41:04,VALID,1006.11,VALID,0,INVALID,110.772,VALID,0.112112,VALID,24.1227,VALID,87,VALID,0,
2014-06-12, 03:42:04,VALID,1006.13,VALID,0,INVALID,110.772,VALID,0,VALID,24.1032,VALID,87,VALID,0,
2014-06-12, 03:43:04,VALID,1006.13,VALID,0,INVALID,110.787,VALID,0,VALID,24.0624,VALID,87,VALID,0,
2014-06-12, 03:44:04,VALID,1006.09,VALID,0,INVALID,110.749,VALID,0,VALID,24.0819,VALID,87,VALID,0,
2014-06-12, 03:45:04,VALID,1006.1,VALID,0,INVALID,110.756,VALID,0.112112,VALID,24.0624,VALID,87,VALID,0,
2014-06-12, 03:46:04,VALID,1006.08,VALID,0,INVALID,110.81,VALID,0,VALID,24.0837,VALID,87,VALID,0,
2014-06-12, 03:47:04,VALID,1006.06,VALID,0,INVALID,110.795,VALID,0,VALID,24.0643,VALID,87,VALID,0,
2014-06-12, 03:48:04,VALID,1006.04,VALID,0,INVALID,110.787,VALID,0.112112,VALID,24.0448,VALID,87,VALID,0,
2014-06-12, 03:49:04,VALID,1006.03,VALID,0,INVALID,110.817,VALID,0.112112,VALID,24.0253,VALID,87,VALID,0,
2014-06-12, 03:50:04,VALID,1006.03,VALID,0,INVALID,110.81,VALID,0,VALID,23.9845,VALID,87,VALID,0,
2014-06-12, 03:51:04,VALID,1006.02,VALID,0,INVALID,110.825,VALID,0.112112,VALID,24.0058,VALID,87,VALID,0,
2014-06-12, 03:52:04,VALID,1006.03,VALID,0,INVALID,110.779,VALID,0.112112,VALID,23.9863,VALID,87,VALID,0,